Regional Weather Roundup
Issued by NWS Portland, ME

Current Version | Previous Version | Text Only | Print | Product List | Glossary Off
Versions: 1 2 3 4 5 6 7 8 9 10 11 12 13 14 15 16 17 18 19 20 21 22 23 24 25 26 27 28 29 30 31 32 33 34 35 36 37 38 39 40 41 42 43 44 45 46 47 48 49 50
209 ASUS41 KGYX 151110 RWRGYX WEATHER ROUNDUP FOR MAINE AND NEW HAMPSHIRE NATIONAL WEATHER SERVICE GRAY ME 600 AM EST THU NOV 15 2018 MEZ002-005-006-010-012-015-018-020-021-024-026-027-029-151200- MAINE CITY SKY/WX TMP DP RH WIND PRES REMARKS PORTLAND FAIR 17 8 67 W3 30.59S SANFORD FAIR 14 9 80 SW5 30.61R BAR HARBOR FAIR 15 5 64 NW8 30.56R WISCASSET FAIR 13 8 81 CALM 30.60R ROCKLAND FAIR 16 5 62 NW5 30.57R FRYEBURG FAIR 4 1 88 NW3 30.55S LEWISTONAUBURN FAIR 13 6 74 N3 30.58R AUGUSTA FAIR 13 5 70 CALM 30.58R WATERVILLE FAIR 10 6 84 MISG 30.55R BANGOR FAIR 11 5 77 NW3 30.55F GREENVILLE N/A 7 0 73 N6 30.43F MILLINOCKET FAIR 11 2 67 NW12G18 30.53F WCI -3 HOULTON FAIR 7 2 80 W6 30.50R PRESQUE ISLE FAIR 6 1 80 S6 30.50R FRENCHVILLE FAIR 10 1 67 NW12 30.42R WCI -5 CARIBOU FAIR 9 1 70 VRB5 30.46R $$ NHZ002-005-008-009-011-012-014-151200- NEW HAMPSHIRE CITY SKY/WX TMP DP RH WIND PRES REMARKS PORTSMOUTH MOCLDY 19 6 58 W6 30.59R ROCHESTER FAIR 17 7 64 VRB3 30.58R NASHUA FAIR 19 9 65 N3 30.60F MANCHESTER FAIR 20 7 57 CALM 30.59R CONCORD FAIR 17 7 64 W3 30.60R LACONIA FAIR 16 8 71 S6 30.58S PLYMOUTH FAIR 15 6 66 W10 30.58S WCI 3 BERLIN FAIR -2 -7 79 CALM 30.55R WHITEFIELD FAIR 1 -3 83 CALM 30.57R JAFFREY FAIR 17 7 64 CALM 30.53F KEENE FAIR 18 9 68 N6 30.59F LEBANON FAIR 14 7 73 CALM 30.60F MT WASHINGTON PTCLDY 10 -27 16 NW31 N/A WCI -12 $$ VTZ005-007-008-151200- VERMONT CITY SKY/WX TMP DP RH WIND PRES REMARKS ST JOHNSBURY N/A 4 1 88 MISG 30.59S MONTPELIER FAIR 5 4 95 CALM 30.58F BURLINGTON MOCLDY 15 8 73 E3 30.61F $$ MAZ007-012-024-CTZ003-RIZ002-NYZ038-NYZ072-151200- SOUTHERN NEW ENGLAND AND NY CITY SKY/WX TMP DP RH WIND PRES REMARKS BOSTON CLOUDY 24 5 44 NW10 30.61S WCI 14 WORCESTER FAIR 18 4 54 N6 30.53F NANTUCKET FAIR 30 19 63 N8 30.57S PROVIDENCE MOCLDY 24 8 50 N8 30.61S HARTFORD CLOUDY 22 12 65 N5 30.60F ALBANY CLOUDY 20 10 65 N5 30.61F NEW YORK CITY CLOUDY 31 13 47 NE8 30.57F $$ ANZ081-ANZ082-ANZ150-NHZ014-MEZ023>029-151200- COASTAL MARINE OBSERVATIONS STATION/POSITION TIME TEMP WIND PRES WAVE AIR SEA DIR/SP/G HT/PER (UTC) (F) (DEG/KT/KT) (MB) (FT/S) MOUNT DESERT ROC 1100 27 320/ 24/ 27 1034.0R MATINICUS ROCK 1000 26 350/ 18/ 22 1033.9R ISLE OF SHOALS 1000 21 310/ 13/ 14 1035.4S CASHES LEDGE BUO 1050 30 49 1034.4R 5/ 6 $$ .............KEY.............. WCI - WIND CHILL TC - TEMPERATURE IN CELSIUS VSB - VISIBILITY IN MILES HX - HEAT INDEX FAIR- INDICATES FEW OR NO CLOUDS BELOW 12,000 FT, WITH NO SIGNIFICANT WEATHER AND/OR OBSTRUCTIONS TO VISIBILITY.

USA.gov is the U.S. government's official web portal to all federal, state and local government web resources and services.